Location: Norton
(51.3000°N, 0.8167°E)
Time: 12:27:22
(UTC+00:00)

USA 186 - Pass Details

Date: 03 March 2021
Orbit: 261 x 430 km, 96.9° (Epoch: 08 April)

Event Time Altitude Azimuth Distance (km) Brightness Sun altitude
Exits shadow 20:00:01 23° 283° (WNW) 695 3.7 -22.3°
Drops below altitude 10° 20:01:43 10° 323° (NW) 1,180 4.8 -22.5°
Sets 20:03:50 0° 338° (NNW) 2,047 5.8 -22.8°
